Change the Weather History Date:

Saturday, December 28, 2013

  Actual Average (KGAF) Record (KGAF)
Temperature  
Mean Temperature 3 °F -  
Max Temperature 19 °F 16 °F 47 °F (1979)
Min Temperature -13 °F 0 °F -23 °F (1949)
Degree Days  
Heating Degree Days 62    
Moisture  
Dew Point -3 °F    
Average Humidity 83    
Maximum Humidity 100    
Minimum Humidity 64    
Precipitation  
Precipitation 1.36 in - - ()
Sea Level Pressure  
Sea Level Pressure 30.13 in    
Wind  
Wind Speed 18 mph (North)    
Max Wind Speed 33 mph    
Max Gust Speed 46 mph    
Visibility 3 miles    
Events Rain , Snow    
Averages and records for this station are not official NWS values.
T = Trace of Precipitation, MM = Missing Value Source: NWS Daily Summary

Daily Weather History Graph

Daily Weather History Graph

Search for Another Location

Airport or City:

Trip Planner

Search our weather history database for the weather conditions in past years. The results will help you decide how hot, cold, wet, or windy it might be!

Date:

Astronomy

Dec. 28, 2013 Rise Set
Actual Time 8:23 AM CST 4:41 PM CST
Civil Twilight 7:46 AM CST 5:18 PM CST
Nautical Twilight 7:06 AM CST 5:58 PM CST
Astronomical Twilight 6:27 AM CST 6:37 PM CST
Moon 3:50 AM CST (12/28) 1:43 PM CST (12/28)
Length of Visible Light 9h 32m
Length of Day
8h 17m
Waning Crescent, 19% of the Moon is Illuminated
Dec 28
Waning Crescent
Jan 1
New
Jan 7
First Quarter
Jan 15
Full
Jan 23
Last Quarter

Hourly Weather History & Observations

Time (CST) Temp. Windchill Dew Point Humidity Pressure Visibility Wind Dir Wind Speed Gust Speed Precip Events Conditions
12:15 AM 17.6 °F 7.3 °F 17.6 °F 100% 29.90 in 1.5 mi NNW 8.1 mph - 0.01 in Snow Light Snow
12:35 AM 17.6 °F 9.3 °F 17.6 °F 100% 29.89 in 2.0 mi North 5.8 mph - 0.02 in Snow Light Snow
12:55 AM 19.4 °F 11.5 °F 17.6 °F 93% 29.88 in 3.0 mi North 5.8 mph - 0.03 in Snow Light Snow
1:15 AM 17.6 °F 6.4 °F 15.8 °F 93% 29.88 in 5.0 mi NNE 9.2 mph - N/A   Overcast
1:35 AM 17.6 °F 6.4 °F 15.8 °F 93% 29.87 in 7.0 mi NE 9.2 mph - N/A   Overcast
1:55 AM 15.8 °F 4.2 °F 14.0 °F 93% 29.86 in 6.0 mi NNE 9.2 mph - N/A   Overcast
2:15 AM 15.8 °F 2.1 °F 14.0 °F 93% 29.86 in 6.0 mi North 12.7 mph - N/A   Overcast
2:35 AM 14.0 °F -0.2 °F 14.0 °F 100% 29.86 in 7.0 mi NNE 12.7 mph - N/A   Overcast
2:55 AM 14.0 °F -1.4 °F 10.4 °F 86% 29.86 in 5.0 mi North 15.0 mph 20.7 mph N/A   Overcast
3:15 AM 14.0 °F -0.8 °F 10.4 °F 86% 29.86 in 3.0 mi North 13.8 mph - N/A Rain Light Freezing Rain
3:35 AM 12.2 °F -3.7 °F 10.4 °F 92% 29.86 in 2.5 mi North 15.0 mph 18.4 mph N/A Rain Light Freezing Rain
3:55 AM 10.4 °F -8.2 °F 8.6 °F 92% 29.86 in 1.8 mi North 19.6 mph 25.3 mph N/A Snow Light Snow
4:15 AM 10.4 °F -8.6 °F 8.6 °F 92% 29.85 in 1.2 mi North 20.7 mph 26.5 mph N/A Snow Light Snow
4:35 AM 10.4 °F -6.6 °F 6.8 °F 85% 29.85 in 1.0 mi North 16.1 mph 24.2 mph 0.02 in Snow Light Snow
4:55 AM 8.6 °F -10.0 °F 6.8 °F 92% 29.85 in 1.2 mi North 18.4 mph 21.9 mph 0.04 in Snow Light Snow
5:15 AM 10.4 °F -7.2 °F 6.8 °F 85% 29.85 in 1.0 mi North 17.3 mph - 0.01 in Snow Light Snow
5:35 AM 10.4 °F -7.2 °F 6.8 °F 85% 29.86 in 0.8 mi North 17.3 mph 24.2 mph 0.03 in Snow Light Snow
5:55 AM 10.4 °F -8.2 °F 6.8 °F 85% 29.86 in 0.8 mi North 19.6 mph 28.8 mph 0.05 in Snow Light Snow
6:15 AM 10.4 °F -8.6 °F 6.8 °F 85% 29.87 in 0.8 mi North 20.7 mph 28.8 mph 0.01 in Snow Light Snow
6:35 AM 10.4 °F -8.2 °F 8.6 °F 92% 29.87 in 0.8 mi North 19.6 mph 26.5 mph 0.04 in Snow Light Snow
6:55 AM 10.4 °F -7.2 °F 8.6 °F 92% 29.89 in 0.8 mi North 17.3 mph 26.5 mph 0.06 in Snow Light Snow
7:15 AM 10.4 °F -9.1 °F 8.6 °F 92% 29.89 in 0.8 mi North 21.9 mph 28.8 mph 0.02 in Snow Light Snow
7:35 AM 10.4 °F -9.5 °F 6.8 °F 85% 29.90 in 0.8 mi North 23.0 mph 29.9 mph 0.06 in Snow Light Snow
7:55 AM 8.6 °F -11.0 °F 6.8 °F 92% 29.90 in 0.8 mi North 20.7 mph 27.6 mph 0.11 in Snow Light Snow
8:15 AM 8.6 °F -11.0 °F 5.0 °F 85% 29.93 in 0.5 mi North 20.7 mph 27.6 mph 0.01 in Rain Light Freezing Rain
8:35 AM 6.8 °F -13.8 °F 5.0 °F 92% 29.93 in 0.2 mi North 21.9 mph 27.6 mph 0.03 in Snow Heavy Snow
8:55 AM 6.8 °F -14.3 °F 3.2 °F 85% 29.95 in 0.2 mi North 23.0 mph 31.1 mph 0.05 in Snow Heavy Snow
9:15 AM 6.8 °F -15.1 °F 3.2 °F 85% 29.96 in 0.2 mi North 25.3 mph 32.2 mph 0.05 in Snow Heavy Snow
9:35 AM 5.0 °F -16.2 °F 1.4 °F 85% 29.99 in 0.2 mi North 21.9 mph 32.2 mph 0.10 in Snow Heavy Snow
9:55 AM 5.0 °F -17.1 °F -0.4 °F 78% 30.00 in 0.2 mi North 24.2 mph 33.4 mph 0.13 in Snow Heavy Snow
10:15 AM 3.2 °F -21.1 °F -0.4 °F 85% 30.03 in 0.2 mi North 28.8 mph 41.4 mph 0.01 in Rain Light Freezing Rain
10:35 AM 3.2 °F -21.8 °F -0.4 °F 85% 30.04 in 0.2 mi North 31.1 mph 43.7 mph 0.02 in Snow Heavy Snow
10:55 AM 1.4 °F -23.5 °F -0.4 °F 92% 30.06 in 0.2 mi North 28.8 mph 36.8 mph 0.03 in Snow Heavy Snow
11:15 AM 1.4 °F -23.5 °F -0.4 °F 92% 30.07 in 0.2 mi North 28.8 mph 40.3 mph 0.01 in Snow Heavy Snow
11:35 AM 1.4 °F -24.6 °F -2.2 °F 85% 30.07 in 0.2 mi North 32.2 mph 40.3 mph 0.04 in Snow Heavy Snow
11:55 AM -0.4 °F -26.4 °F -2.2 °F 92% 30.07 in 0.2 mi North 29.9 mph 42.6 mph 0.11 in Snow Heavy Snow
12:15 PM -0.4 °F -26.4 °F -2.2 °F 92% 30.11 in 0.2 mi North 29.9 mph 42.6 mph 0.04 in Snow Heavy Snow
12:35 PM -0.4 °F -25.6 °F -2.2 °F 92% 30.12 in 0.2 mi North 27.6 mph 36.8 mph 0.12 in Rain Light Freezing Rain
12:55 PM -0.4 °F -25.2 °F -4.0 °F 85% 30.13 in 0.2 mi North 26.5 mph 41.4 mph 0.17 in Snow Heavy Snow
1:15 PM -0.4 °F -27.5 °F -4.0 °F 85% 30.14 in 0.2 mi North 33.4 mph 44.9 mph 0.05 in Rain Light Freezing Rain
1:35 PM -0.4 °F -26.7 °F -4.0 °F 85% 30.15 in 0.2 mi North 31.1 mph 43.7 mph 0.13 in Rain Light Freezing Rain
1:55 PM -0.4 °F -26.0 °F -5.8 °F 78% 30.17 in 0.2 mi North 28.8 mph 38.0 mph 0.20 in Snow Heavy Snow
2:15 PM -2.2 °F -29.6 °F -5.8 °F 85% 30.18 in 0.2 mi North 32.2 mph 44.9 mph 0.07 in Snow Heavy Snow
2:35 PM -2.2 °F -27.6 °F -7.6 °F 78% 30.20 in 0.2 mi NNW 26.5 mph 43.7 mph 0.14 in Snow Heavy Snow
2:55 PM -4.0 °F -30.4 °F -9.4 °F 78% 30.22 in 0.2 mi North 27.6 mph 40.3 mph 0.21 in Snow Heavy Snow
3:15 PM -4.0 °F -31.3 °F -9.4 °F 78% 30.24 in 0.2 mi North 29.9 mph 46.0 mph 0.04 in Snow Heavy Snow
3:35 PM -4.0 °F -32.0 °F -9.4 °F 78% 30.26 in 0.2 mi NNW 32.2 mph 41.4 mph 0.10 in Rain Light Freezing Rain
3:55 PM -5.8 °F -32.9 °F -9.4 °F 84% 30.27 in 0.2 mi North 27.6 mph 40.3 mph 0.15 in Snow Heavy Snow
4:15 PM -5.8 °F -32.4 °F -11.2 °F 77% 30.29 in 0.2 mi North 26.5 mph 35.7 mph N/A Snow Heavy Snow
4:35 PM -7.6 °F -35.7 °F - N/A% 30.30 in 0.2 mi North 28.8 mph 41.4 mph 0.01 in Rain Light Freezing Rain
4:55 PM -7.6 °F -36.6 °F -13.0 °F 77% 30.33 in 0.2 mi North 31.1 mph 40.3 mph 0.02 in Rain Light Freezing Rain
5:15 PM -7.6 °F -36.6 °F -13.0 °F 77% 30.35 in 0.5 mi NNW 31.1 mph 38.0 mph N/A Rain Light Freezing Rain
5:35 PM -9.4 °F -37.3 °F -13.0 °F 84% 30.37 in 0.8 mi NNW 26.5 mph 34.5 mph N/A Rain Light Freezing Rain
5:55 PM -9.4 °F -36.3 °F -14.8 °F 77% 30.38 in 1.2 mi North 24.2 mph 36.8 mph N/A Rain Light Freezing Rain
6:15 PM -11.2 °F -38.7 °F -16.6 °F 77% 30.39 in 2.5 mi North 24.2 mph 33.4 mph N/A Rain Light Freezing Rain
6:35 PM -11.2 °F -38.2 °F -16.6 °F 77% 30.42 in 2.5 mi NNW 23.0 mph 29.9 mph N/A Rain Light Freezing Rain
6:55 PM -11.2 °F -38.7 °F -16.6 °F 77% 30.43 in 2.5 mi NNW 24.2 mph 32.2 mph N/A Rain Light Freezing Rain
7:15 PM -11.2 °F -37.6 °F -16.6 °F 77% 30.44 in 3.0 mi NNW 21.9 mph 28.8 mph N/A Rain Light Freezing Rain
7:35 PM -11.2 °F -36.4 °F -16.6 °F 77% 30.44 in 5.0 mi North 19.6 mph 29.9 mph N/A Rain Light Freezing Rain
7:55 PM -11.2 °F -37.0 °F -18.4 °F 70% 30.45 in 10.0 mi North 20.7 mph 26.5 mph N/A   Scattered Clouds
8:15 PM -11.2 °F -35.2 °F -18.4 °F 70% 30.46 in 10.0 mi NNW 17.3 mph 24.2 mph N/A   Clear
8:35 PM -11.2 °F -33.7 °F -18.4 °F 70% 30.47 in 10.0 mi NNW 15.0 mph 20.7 mph N/A   Clear
8:55 PM -13.0 °F -36.0 °F -18.4 °F 77% 30.48 in 10.0 mi NNW 15.0 mph 20.7 mph N/A   Clear
9:15 PM -13.0 °F -35.2 °F -18.4 °F 77% 30.48 in 10.0 mi NNW 13.8 mph - N/A   Clear
9:35 PM -13.0 °F -36.8 °F -20.2 °F 70% 30.49 in 10.0 mi NNW 16.1 mph 21.9 mph N/A   Clear
9:55 PM -13.0 °F -38.2 °F -20.2 °F 70% 30.49 in 10.0 mi NNW 18.4 mph - N/A   Clear
10:15 PM -13.0 °F -37.5 °F -20.2 °F 70% 30.50 in 10.0 mi NW 17.3 mph 21.9 mph N/A   Partly Cloudy
10:35 PM -13.0 °F -35.2 °F -20.2 °F 70% 30.49 in 10.0 mi NNW 13.8 mph 21.9 mph N/A   Mostly Cloudy
10:55 PM -11.2 °F -34.4 °F -20.2 °F 64% 30.49 in 10.0 mi NNW 16.1 mph 21.9 mph N/A   Scattered Clouds
11:15 PM -11.2 °F -35.8 °F -20.2 °F 64% 30.49 in 10.0 mi NNW 18.4 mph 23.0 mph N/A   Mostly Cloudy
11:35 PM -11.2 °F -32.9 °F -20.2 °F 64% 30.50 in 10.0 mi NW 13.8 mph - N/A   Overcast
11:55 PM -11.2 °F -32.9 °F -20.2 °F 64% 30.50 in 10.0 mi NNW 13.8 mph 19.6 mph N/A   Mostly Cloudy